• In France
  • List of Countries
  • For 7 days
  • Water Temperature
  • Satellite Maps
  • Weather Map
  • Weather Widgets
  • user-avatar
    Login

    Hourly Weather Pointe-Noire

    Today, 25 February, Sunday

    Time Temperature Precipitation Wind Pressure Humidity
    00:00 +26°C° 0.2 mm 2 mps 719 mmHg 87%
    01:00 +26°C° 0 mm 1 mps 720 mmHg 90%
    02:00 +26°C° 0.2 mm 1 mps 720 mmHg 90%
    03:00 +25°C° 0.2 mm 1 mps 720 mmHg 91%
    04:00 +25°C° 0.2 mm 1 mps 720 mmHg 91%
    05:00 +25°C° 0 mm 1 mps 720 mmHg 91%
    06:00 +25°C° 0 mm 1 mps 720 mmHg 92%
    07:00 +25°C° 0 mm 1 mps 721 mmHg 93%
    08:00 +27°C° 0 mm 1 mps 721 mmHg 83%
    09:00 +29°C° 0 mm 1 mps 721 mmHg 72%
    10:00 +31°C° 0 mm 1 mps 721 mmHg 62%
    11:00 +33°C° 0.1 mm 1 mps 721 mmHg 54%
    12:00 +36°C° 0.1 mm 1 mps 720 mmHg 46%
    13:00 +39°C° 0.1 mm 1 mps 720 mmHg 38%
    14:00 +37°C° 0.1 mm 1 mps 719 mmHg 39%
    15:00 +36°C° 0.1 mm 1 mps 718 mmHg 41%
    16:00 +35°C° 0.1 mm 1 mps 717 mmHg 43%
    17:00 +33°C° 0.1 mm 1 mps 717 mmHg 49%
    18:00 +32°C° 0.1 mm 2 mps 717 mmHg 56%
    19:00 +30°C° 0.1 mm 2 mps 718 mmHg 62%
    20:00 +29°C° 0.2 mm 3 mps 718 mmHg 70%
    21:00 +27°C° 0.2 mm 3 mps 719 mmHg 77%
    22:00 +26°C° 0.2 mm 3 mps 719 mmHg 85%
    23:00 +26°C° 0 mm 3 mps 720 mmHg 85%

    Tomorrow, 26 February, Monday

    Time Temperature Precipitation Wind Pressure Humidity
    00:00 +26°C° 0 mm 3 mps 720 mmHg 85%
    01:00 +26°C° 0 mm 3 mps 720 mmHg 85%
    02:00 +26°C° 0.1 mm 2 mps 720 mmHg 86%
    03:00 +25°C° 0.1 mm 2 mps 720 mmHg 87%
    04:00 +25°C° 0.1 mm 2 mps 720 mmHg 88%
    05:00 +25°C° 0 mm 2 mps 720 mmHg 88%
    06:00 +25°C° 0 mm 2 mps 720 mmHg 89%
    07:00 +25°C° 0 mm 2 mps 720 mmHg 90%
    08:00 +26°C° 0.1 mm 2 mps 721 mmHg 85%
    09:00 +27°C° 0.1 mm 2 mps 721 mmHg 81%
    10:00 +27°C° 0.1 mm 2 mps 722 mmHg 77%
    11:00 +29°C° 0.1 mm 2 mps 721 mmHg 72%
    12:00 +30°C° 0.1 mm 2 mps 721 mmHg 66%
    13:00 +31°C° 0.1 mm 2 mps 720 mmHg 61%
    14:00 +32°C° 0 mm 2 mps 719 mmHg 57%
    15:00 +34°C° 0 mm 2 mps 719 mmHg 54%
    16:00 +34°C° 0 mm 2 mps 718 mmHg 50%
    17:00 +31°C° 0.2 mm 2 mps 718 mmHg 58%
    18:00 +30°C° 0.2 mm 2 mps 719 mmHg 66%
    19:00 +28°C° 0.2 mm 2 mps 719 mmHg 74%
    20:00 +27°C° 0 mm 2 mps 720 mmHg 77%
    21:00 +27°C° 0 mm 2 mps 720 mmHg 81%
    22:00 +26°C° 0 mm 2 mps 721 mmHg 84%
    23:00 +26°C° 0.1 mm 2 mps 721 mmHg 85%

    Day after tomorrow, 27 February, Tuesday

    Time Temperature Precipitation Wind Pressure Humidity
    00:00 +25°C° 0.1 mm 2 mps 721 mmHg 85%
    01:00 +25°C° 0.1 mm 2 mps 721 mmHg 85%
    02:00 +25°C° 0 mm 2 mps 720 mmHg 86%
    03:00 +25°C° 0 mm 2 mps 720 mmHg 86%
    04:00 +24°C° 0 mm 2 mps 720 mmHg 86%
    05:00 +24°C° 0 mm 2 mps 720 mmHg 87%
    06:00 +24°C° 0 mm 1 mps 720 mmHg 88%
    07:00 +24°C° 0 mm 1 mps 721 mmHg 89%
    08:00 +25°C° 0 mm 1 mps 721 mmHg 82%
    09:00 +26°C° 0 mm 1 mps 722 mmHg 76%
    10:00 +28°C° 0 mm 2 mps 723 mmHg 69%
    11:00 +29°C° 0 mm 2 mps 722 mmHg 63%
    12:00 +31°C° 0 mm 2 mps 721 mmHg 56%
    13:00 +34°C° 0 mm 2 mps 721 mmHg 50%
    14:00 +34°C° 0.1 mm 2 mps 720 mmHg 49%
    15:00 +34°C° 0.1 mm 2 mps 719 mmHg 48%
    16:00 +34°C° 0.1 mm 2 mps 718 mmHg 47%
    17:00 +32°C° 0.1 mm 2 mps 719 mmHg 54%
    18:00 +30°C° 0.1 mm 1 mps 719 mmHg 61%
    19:00 +28°C° 0.1 mm 1 mps 720 mmHg 68%
    20:00 +28°C° 0 mm 2 mps 720 mmHg 73%
    21:00 +27°C° 0 mm 2 mps 721 mmHg 78%
    22:00 +26°C° 0 mm 2 mps 721 mmHg 82%
    23:00 +26°C° 0 mm 2 mps 721 mmHg 84%

    28 February, Wednesday

    Time Temperature Precipitation Wind Pressure Humidity
    00:00 +25°C° 0 mm 2 mps 721 mmHg 86%
    01:00 +25°C° 0 mm 2 mps 720 mmHg 87%
    02:00 +25°C° 0 mm 2 mps 720 mmHg 88%
    03:00 +24°C° 0 mm 2 mps 720 mmHg 88%
    04:00 +24°C° 0 mm 1 mps 720 mmHg 89%
    05:00 +24°C° 0 mm 1 mps 720 mmHg 89%
    06:00 +24°C° 0 mm 1 mps 720 mmHg 89%
    07:00 +24°C° 0 mm 1 mps 721 mmHg 88%
    08:00 +26°C° 0 mm 1 mps 721 mmHg 79%
    09:00 +28°C° 0 mm 1 mps 721 mmHg 70%
    10:00 +30°C° 0 mm 2 mps 722 mmHg 60%
    11:00 +32°C° 0 mm 2 mps 721 mmHg 54%
    12:00 +35°C° 0 mm 2 mps 720 mmHg 47%
    13:00 +36°C° 0 mm 1 mps 719 mmHg 40%
    14:00 +35°C° 0.1 mm 1 mps 719 mmHg 43%
    15:00 +34°C° 0.1 mm 1 mps 718 mmHg 47%
    16:00 +33°C° 0.1 mm 1 mps 718 mmHg 50%
    17:00 +32°C° 0.1 mm 1 mps 718 mmHg 56%
    18:00 +30°C° 0.1 mm 1 mps 718 mmHg 61%
    19:00 +29°C° 0.1 mm 1 mps 719 mmHg 66%
    20:00 +28°C° 0.4 mm 2 mps 719 mmHg 72%
    21:00 +27°C° 0.4 mm 2 mps 720 mmHg 79%
    22:00 +26°C° 0.4 mm 2 mps 721 mmHg 85%
    23:00 +26°C° 0.1 mm 2 mps 721 mmHg 86%

    1 March, Thursday

    Time Temperature Precipitation Wind Pressure Humidity
    00:00 +25°C° 0.1 mm 2 mps 720 mmHg 88%
    01:00 +25°C° 0.1 mm 2 mps 720 mmHg 89%
    02:00 +25°C° 0.2 mm 2 mps 720 mmHg 90%
    03:00 +25°C° 0.2 mm 2 mps 720 mmHg 90%
    04:00 +24°C° 0.2 mm 2 mps 719 mmHg 91%
    05:00 +24°C° 0 mm 1 mps 720 mmHg 91%
    06:00 +24°C° 0 mm 1 mps 720 mmHg 91%
    07:00 +24°C° 0 mm 1 mps 721 mmHg 91%
    08:00 +26°C° 0 mm 1 mps 721 mmHg 83%
    09:00 +28°C° 0 mm 2 mps 722 mmHg 74%
    10:00 +30°C° 0 mm 2 mps 722 mmHg 66%
    11:00 +32°C° 0.1 mm 2 mps 721 mmHg 58%
    12:00 +35°C° 0.1 mm 2 mps 720 mmHg 50%
    13:00 +36°C° 0.1 mm 1 mps 720 mmHg 43%
    14:00 +36°C° 0.2 mm 2 mps 719 mmHg 45%
    15:00 +35°C° 0.2 mm 2 mps 718 mmHg 47%
    16:00 +34°C° 0.2 mm 2 mps 718 mmHg 49%
    17:00 +32°C° 0.1 mm 2 mps 718 mmHg 56%
    18:00 +30°C° 0.1 mm 2 mps 719 mmHg 62%
    19:00 +29°C° 0.1 mm 2 mps 719 mmHg 69%
    20:00 +28°C° 0.1 mm 2 mps 720 mmHg 73%
    21:00 +27°C° 0.1 mm 2 mps 720 mmHg 78%
    22:00 +26°C° 0.1 mm 2 mps 721 mmHg 82%
    23:00 +26°C° 0 mm 2 mps 721 mmHg 83%

    2 March, Friday

    Time Temperature Precipitation Wind Pressure Humidity
    00:00 +25°C° 0 mm 2 mps 720 mmHg 85%
    01:00 +25°C° 0 mm 2 mps 720 mmHg 86%
    02:00 +25°C° 0 mm 2 mps 720 mmHg 87%
    03:00 +24°C° 0 mm 2 mps 720 mmHg 87%
    04:00 +24°C° 0 mm 2 mps 719 mmHg 88%
    05:00 +24°C° 0 mm 2 mps 720 mmHg 89%
    06:00 +24°C° 0 mm 1 mps 720 mmHg 89%
    07:00 +24°C° 0 mm 1 mps 720 mmHg 90%
    08:00 +26°C° 0 mm 1 mps 721 mmHg 82%
    09:00 +27°C° 0 mm 2 mps 721 mmHg 74%
    10:00 +29°C° 0 mm 2 mps 721 mmHg 66%
    11:00 +31°C° 0 mm 2 mps 721 mmHg 58%
    12:00 +34°C° 0 mm 2 mps 720 mmHg 49%
    13:00 +36°C° 0 mm 2 mps 719 mmHg 41%
    14:00 +36°C° 0 mm 2 mps 719 mmHg 40%
    15:00 +36°C° 0 mm 2 mps 718 mmHg 39%
    16:00 +36°C° 0 mm 2 mps 718 mmHg 38%
    17:00 +34°C° 0 mm 2 mps 718 mmHg 45%
    18:00 +31°C° 0 mm 2 mps 718 mmHg 52%
    19:00 +29°C° 0 mm 2 mps 719 mmHg 59%
    20:00 +29°C° 0 mm 2 mps 719 mmHg 65%
    21:00 +28°C° 0 mm 2 mps 720 mmHg 71%
    22:00 +27°C° 0 mm 2 mps 720 mmHg 78%
    23:00 +26°C° 0 mm 2 mps 720 mmHg 80%
    Show more